[[{"header":{"parameterUnit":"m.s-1","parameterCategory":2,"la1":30.2991,"la2":30.254,"lo1":-89.0895,"lo2":-89.0444,"dy":0.0017,"dx":0.0017,"nx":28,"ny":28,"refTime":"2023-08-03T03:00:00:Z","depth":"0","parameterNumber":2,"parameterNumberName":"U-component_of_CURRENTS"},"data":[0,0,0,0,0,0,0,0,0,0,0,0,0,0,0,0,0,0,0,0,0,0,0,0,0,0,0,0,0,0,0,0,0,0,0,0,0,0,0,0,0,0,0,0,0,0,0,0,0,0,0,0,0,0,0,0,0,0,0.2928,0.2928,0,0.2945,0.2946,0.2946,0.2962,0.2963,0.2963,0.2964,0.3015,0.3016,0.3017,0,0,0,0,0,0,0,0,0,0,0,0,0,0.292,0.292,0.2928,0.2928,0.2929,0.2945,0.2946,0.2946,0.2962,0.2963,0.2963,0.2964,0.3015,0.3016,0.3017,0,0,0,0,0,0,0,0,0,0,0,0,0,0.2927,0.292,0.2928,0.2941,0.2942,0.2945,0.2946,0.2946,0.2962,0.2963,0.2964,0.2964,0.3014,0.3016,0.3017,0.3014,0,0,0.3022,0.3022,0,0,0,0,0,0,0,0,0.2927,0.2927,0.2938,0.294,0.2942,0.2954,0.2962,0.2971,0.2962,0.2952,0.2964,0.2964,0.2999,0.3001,0.3,0.3016,0.3019,0.3022,0.3023,0.3023,0.3024,0,0,0,0,0,0,0,0.2926,0.2927,0.2933,0.2939,0.2941,0.295,0.2951,0.2963,0.2971,0.2953,0.2955,0.296,0.3,0.2998,0.3001,0.3019,0.3022,0.3023,0.3024,0.3024,0.3131,0.3133,0,0,0,0,0,0,0.2927,0.2926,0.2932,0.2934,0.2938,0.2949,0.2951,0.2948,0.297,0.2974,0.296,0.2961,0.2996,0.3,0.3003,0.3088,0.3023,0.3025,0.3025,0.3129,0.3132,0.3134,0,0,0,0,0,0,0.2926,0.2927,0.2932,0.2932,0.2934,0.2949,0.2946,0.2948,0.2952,0.2975,0.298,0.2962,0.2996,0.3001,0.3036,0.3087,0.3025,0.3027,0.3127,0.313,0.3133,0.3202,0,0,0,0,0,0,0.2926,0.2926,0.2924,0.2932,0.2934,0.2959,0.2945,0.2948,0.2955,0.2956,0.2978,0.2983,0.2997,0.3034,0.3038,0.3088,0.3028,0.3125,0.3128,0.3132,0.3198,0.3207,0.3216,0,0,0,0,0,0.2925,0.2933,0.2924,0.2925,0.293,0.2961,0.2964,0.2974,0.2954,0.2974,0.2984,0.2983,0.3061,0.3036,0.304,0.3092,0.3123,0.3127,0.3132,0.3194,0.3205,0.3215,0,0,0,0,0,0,0.292,0.2936,0.2926,0.2933,0.2953,0.2965,0.2988,0.2972,0.299,0.2996,0.2996,0.3003,0.3075,0.3058,0.3031,0.3135,0.3096,0.3102,0.3142,0.3153,0.3162,0.3214,0.3029,0,0,0,0,0,0.2916,0.2941,0.2944,0.2958,0.2969,0.297,0.2979,0.2986,0.3002,0.3009,0.3021,0.3043,0.3093,0.3099,0.3149,0.3172,0.3226,0.3212,0.3221,0.3229,0.3275,0.3388,0.3412,0.3148,0.3148,0.3148,0,0,0.2924,0.2934,0.2948,0.2961,0.2978,0.3006,0.2979,0.3011,0.3033,0.3013,0.3054,0.309,0.3115,0.318,0.3206,0.3166,0.3331,0.3234,0.3241,0.3284,0.3395,0.3421,0.3445,0.3151,0.3151,0.315,0,0,0.2961,0.2956,0.2989,0.3009,0.3037,0.3044,0.3051,0.3067,0.3077,0.3103,0.3128,0.3193,0.3206,0.3272,0.3294,0.3372,0.3399,0.3369,0.343,0.3537,0.3561,0.3582,0.3682,0.3711,0.3344,0.3344,0.3344,0,0.2959,0.2987,0.3005,0.3038,0.3054,0.3061,0.3088,0.3109,0.3133,0.315,0.313,0.3239,0.3268,0.3373,0.3419,0.3401,0.3455,0.3381,0.3552,0.3575,0.3595,0.3692,0.3724,0.3348,0.3347,0.3347,0.3347,0,0.3015,0.3037,0.3065,0.3106,0.3131,0.3163,0.3188,0.3215,0.3209,0.3226,0.3321,0.3373,0.343,0.3459,0.3464,0.3625,0.3615,0.3574,0.3528,0.3627,0.3721,0.3754,0.3353,0.3352,0.3351,0.335,0,0,0.2978,0.3081,0.3081,0.3101,0.3159,0.3175,0.3239,0.3282,0.3312,0.3362,0.3419,0.3539,0.3564,0.3598,0.3626,0.3729,0.3929,0.3715,0.3718,0.3821,0.4174,0.4071,0.4096,0.3908,0.3914,0.3919,0.418,0,0.2997,0.3063,0.3113,0.3165,0.3189,0.3231,0.3283,0.3333,0.3367,0.3435,0.3521,0.3605,0.361,0.3653,0.3764,0.3911,0.4018,0.3863,0.4059,0.4066,0.3968,0.4131,0.3908,0.4115,0.4212,0.4217,0.4221,0,0.2995,0.3041,0.3101,0.3172,0.3186,0.3227,0.3289,0.3337,0.3453,0.349,0.3594,0.3657,0.3855,0.3818,0.4121,0.4017,0.4118,0.4213,0.4223,0.4136,0.4024,0.4032,0.4169,0.4095,0.427,0.4266,0.4263,0,0.2918,0.3007,0.305,0.3075,0.3177,0.3207,0.3251,0.3349,0.3393,0.3542,0.3595,0.3797,0.39,0.4093,0.4273,0.4219,0.4589,0.4515,0.452,0.4512,0.4371,0.434,0.4468,0.4734,0.4734,0.4733,0.4732,0,0.2886,0.2905,0.3017,0.3037,0.3079,0.3157,0.3219,0.3286,0.3409,0.3479,0.3617,0.3718,0.3977,0.4178,0.434,0.4546,0.4635,0.4604,0.4599,0.4384,0.4352,0.4314,0.4211,0.4743,0.4741,0.4739,0.4737,0,0.2796,0.2872,0.292,0.3025,0.305,0.3074,0.3184,0.3227,0.3348,0.3451,0.3509,0.3722,0.3978,0.421,0.4543,0.4603,0.4698,0.4854,0.4583,0.454,0.4425,0.433,0.4333,0.4224,0.4929,0.4929,0.4928,0,0.2761,0.2784,0.2889,0.2914,0.2964,0.3021,0.306,0.3183,0.3236,0.3439,0.3483,0.3742,0.3882,0.4315,0.4524,0.4798,0.4664,0.4714,0.457,0.4454,0.4347,0.4186,0.4082,0.4423,0.4418,0.4415,0.4412,0,0.2692,0.2739,0.2788,0.2845,0.2885,0.2931,0.2996,0.3031,0.3176,0.3266,0.3407,0.354,0.3895,0.4077,0.4402,0.4534,0.4453,0.464,0.4606,0.4057,0.3808,0.3683,0.4216,0.4378,0.4381,0.4384,0.4386,0.4387,0.2633,0.2651,0.2724,0.2768,0.2796,0.2815,0.2828,0.2909,0.2974,0.3085,0.3272,0.3411,0.3671,0.4083,0.419,0.4235,0.4236,0.4179,0.4112,0.3996,0.376,0.4217,0.4294,0.4296,0.4299,0.4301,0.4303,0,0.2552,0.2591,0.2636,0.2672,0.2657,0.2718,0.2758,0.2758,0.2788,0.2936,0.305,0.325,0.3426,0.3635,0.38,0.3749,0.3625,0.3697,0.3437,0.3393,0.3906,0.375,0.3603,0.3603,0.3603,0.3603,0.3603,0.3604,0.2517,0.2529,0.2567,0.2528,0.2539,0.2495,0.25,0.251,0.2587,0.2654,0.2742,0.288,0.3157,0.337,0.3387,0.3341,0.3144,0.3013,0.3082,0.3443,0.3483,0.3521,0.3361,0.3134,0.3133,0.2458,0.2452,0.2448]},{"header":{"parameterUnit":"m.s-1","parameterCategory":2,"la1":30.2991,"la2":30.254,"lo1":-89.0895,"lo2":-89.0444,"dy":0.0017,"dx":0.0017,"nx":28,"ny":28,"refTime":"2023-08-03T03:00:00:Z","depth":"0","parameterNumber":3,"parameterNumberName":"V-component_of_CURRENTS"},"data":[0,0,0,0,0,0,0,0,0,0,0,0,0,0,0,0,0,0,0,0,0,0,0,0,0,0,0,0,0,0,0,0,0,0,0,0,0,0,0,0,0,0,0,0,0,0,0,0,0,0,0,0,0,0,0,0,0,0,0.0913,0.0912,0,0.0803,0.0802,0.0801,0.0735,0.0734,0.0734,0.0733,0.0639,0.0637,0.0635,0,0,0,0,0,0,0,0,0,0,0,0,0,0.1058,0.1056,0.0914,0.0912,0.091,0.0804,0.0802,0.0801,0.0735,0.0734,0.0734,0.0733,0.0639,0.0637,0.0635,0,0,0,0,0,0,0,0,0,0,0,0,0,0.0979,0.1056,0.0914,0.0863,0.0857,0.0804,0.0802,0.0801,0.0735,0.0734,0.0733,0.0733,0.064,0.0637,0.0634,0.0632,0,0,0.0625,0.0624,0,0,0,0,0,0,0,0,0.0984,0.0974,0.0872,0.0866,0.0859,0.078,0.0818,0.0744,0.0735,0.0784,0.0733,0.0732,0.0686,0.068,0.0664,0.0627,0.0623,0.0625,0.0623,0.0622,0.0621,0,0,0,0,0,0,0,0.0989,0.0978,0.0872,0.087,0.0863,0.0842,0.0831,0.0804,0.0743,0.078,0.0774,0.0758,0.0683,0.0667,0.0661,0.0622,0.0625,0.0622,0.062,0.0619,0.0607,0.0608,0,0,0,0,0,0,0.0999,0.0983,0.0876,0.0869,0.0918,0.084,0.0827,0.0808,0.0743,0.0731,0.0759,0.0755,0.0672,0.0665,0.0657,0.0699,0.0622,0.0619,0.0617,0.0605,0.0607,0.0609,0,0,0,0,0,0,0.1002,0.099,0.088,0.0922,0.0906,0.0839,0.0818,0.0806,0.0792,0.0727,0.0716,0.0756,0.0671,0.0662,0.0646,0.0693,0.0617,0.0615,0.0604,0.0606,0.0608,0.075,0,0,0,0,0,0,0.1007,0.0992,0.0986,0.0923,0.0904,0.0867,0.0818,0.0805,0.0782,0.0777,0.0721,0.0711,0.067,0.0651,0.0643,0.0687,0.0612,0.0602,0.0605,0.0607,0.0744,0.0757,0.0769,0,0,0,0,0,0.1013,0.1003,0.0986,0.0973,0.0896,0.0868,0.0859,0.0809,0.0783,0.0791,0.075,0.0712,0.0664,0.065,0.064,0.0684,0.06,0.0604,0.0607,0.0738,0.0754,0.0768,0,0,0,0,0,0,0.1057,0.0994,0.0974,0.0944,0.0919,0.0857,0.0854,0.0819,0.0791,0.0787,0.0725,0.0714,0.0723,0.0679,0.0665,0.0688,0.0629,0.063,0.0732,0.0746,0.0759,0.0796,0.061,0,0,0,0,0,0.1067,0.1052,0.0994,0.0979,0.0969,0.0917,0.0899,0.0868,0.083,0.0816,0.0778,0.0743,0.0729,0.0717,0.0694,0.07,0.0672,0.0723,0.0736,0.0746,0.077,0.0767,0.0783,0.062,0.062,0.062,0,0,0.1087,0.1046,0.104,0.099,0.0967,0.0971,0.0906,0.089,0.0896,0.0812,0.0817,0.0786,0.074,0.0755,0.0755,0.0723,0.0776,0.0751,0.0761,0.0778,0.0773,0.0789,0.0803,0.0622,0.0622,0.0621,0,0,0.1129,0.1083,0.1094,0.1077,0.1043,0.1013,0.1015,0.0967,0.0951,0.0941,0.0899,0.0899,0.0852,0.085,0.0836,0.0901,0.0845,0.0889,0.0981,0.0979,0.0993,0.1005,0.0987,0.0996,0.0893,0.0893,0.0894,0,0.1155,0.1146,0.1098,0.1107,0.1099,0.1042,0.1064,0.1044,0.0999,0.1003,0.096,0.0944,0.0904,0.0947,0.097,0.0935,0.0912,0.0931,0.0998,0.1009,0.1019,0.0997,0.1006,0.0901,0.09,0.0899,0.0898,0,0.1204,0.1203,0.1212,0.1206,0.1202,0.1205,0.1174,0.1174,0.114,0.1121,0.1143,0.1098,0.1091,0.1085,0.1043,0.1108,0.1063,0.1018,0.0966,0.1045,0.1016,0.1022,0.0911,0.0908,0.0906,0.0904,0,0,0.1237,0.1246,0.1246,0.1264,0.1247,0.1246,0.1274,0.128,0.1307,0.1275,0.1317,0.1302,0.1282,0.1268,0.1232,0.1235,0.1279,0.1165,0.1161,0.1159,0.1267,0.12,0.1199,0.1244,0.1246,0.1247,0.1219,0,0.1288,0.1322,0.1316,0.1367,0.1384,0.1361,0.1395,0.14,0.1389,0.1418,0.1395,0.1418,0.135,0.136,0.1358,0.1316,0.1302,0.129,0.1182,0.1179,0.1119,0.1207,0.1078,0.1039,0.1224,0.1225,0.1225,0,0.1329,0.1342,0.1395,0.144,0.1449,0.1478,0.1517,0.1542,0.1575,0.1574,0.1599,0.1574,0.1613,0.1517,0.1492,0.1488,0.139,0.1334,0.133,0.1227,0.1124,0.0989,0.1042,0.0803,0.1234,0.1233,0.1233,0,0.135,0.1397,0.1438,0.1447,0.1491,0.1523,0.1551,0.159,0.1629,0.1684,0.1725,0.174,0.1757,0.1679,0.1571,0.1533,0.1518,0.1437,0.1278,0.127,0.112,0.1097,0.094,0.1386,0.1386,0.1386,0.1387,0,0.1382,0.1415,0.1451,0.1469,0.1534,0.156,0.1643,0.1669,0.1741,0.1816,0.1814,0.1876,0.1797,0.177,0.1639,0.1508,0.1565,0.1323,0.1274,0.1164,0.1146,0.0896,0.0808,0.1385,0.1386,0.1386,0.1386,0,0.1402,0.1417,0.1466,0.152,0.1544,0.1588,0.1688,0.1755,0.1819,0.1921,0.195,0.1997,0.1981,0.1876,0.176,0.1595,0.133,0.1381,0.1257,0.1194,0.0808,0.0735,0.0597,0.0522,0.121,0.1209,0.1207,0,0.1414,0.1441,0.1497,0.1525,0.1552,0.1627,0.1694,0.1776,0.1858,0.1991,0.2052,0.2081,0.2103,0.1939,0.1689,0.1469,0.1273,0.1149,0.1047,0.0799,0.0681,0.0643,0.0588,0.0895,0.0891,0.0888,0.0885,0,0.1437,0.1452,0.1491,0.1558,0.1617,0.17,0.1801,0.1871,0.1987,0.2083,0.2196,0.2228,0.2084,0.1844,0.1549,0.1348,0.0972,0.1076,0.0849,0.0465,0.0385,0.0283,0.0895,0.0858,0.086,0.0862,0.0864,0.0865,0.1443,0.1473,0.1524,0.1587,0.1661,0.1756,0.1832,0.1949,0.2076,0.2212,0.2265,0.2306,0.1935,0.1542,0.1273,0.0654,0.0782,0.0407,0.0353,0.0348,0.0237,0.0796,0.0686,0.0688,0.0689,0.0691,0.0692,0,0.1427,0.1474,0.1552,0.1622,0.1705,0.1752,0.1896,0.1978,0.2108,0.2225,0.2313,0.2095,0.162,0.1146,0.0384,-0.0026,-0.0129,-0.0238,-0.0359,-0.0367,0.0121,0.0062,-0.0225,-0.0225,-0.0224,-0.0224,-0.0224,-0.0224,0.1416,0.1466,0.1517,0.163,0.17,0.182,0.1895,0.2012,0.2112,0.2192,0.2164,0.2156,0.174,0.0431,-0.051,-0.0704,-0.0909,-0.0962,-0.0974,-0.0728,-0.0674,-0.0622,-0.0702,-0.1144,-0.1145,-0.1488,-0.1492,-0.1495]}],[{"header":{"parameterUnit":"m.s-1","parameterCategory":2,"la1":30.2991,"la2":30.254,"lo1":-89.0895,"lo2":-89.0444,"dy":0.0017,"dx":0.0017,"nx":28,"ny":28,"refTime":"2023-08-03T03:00:00:Z","depth":"2","parameterNumber":2,"parameterNumberName":"U-component_of_CURRENTS"},"data":[0,0,0,0,0,0,0,0,0,0,0,0,0,0,0,0,0,0,0,0,0,0,0,0,0,0,0,0,0,0,0,0,0,0,0,0,0,0,0,0,0,0,0,0,0,0,0,0,0,0,0,0,0,0,0,0,0,0,0.0824,0.0826,0,0.0952,0.0953,0.0955,0.1052,0.1053,0.1054,0.1055,0.1113,0.1114,0.1114,0,0,0,0,0,0,0,0,0,0,0,0,0,0.072,0.0721,0.0824,0.0826,0.0828,0.0952,0.0954,0.0955,0.1052,0.1054,0.1055,0.1056,0.1113,0.1114,0.1114,0,0,0,0,0,0,0,0,0,0,0,0,0,0.0797,0.0721,0.0824,0.0892,0.0899,0.0952,0.0954,0.0956,0.1052,0.1054,0.1055,0.1057,0.1113,0.1114,0.1115,0.1089,0,0,0.1117,0.1118,0,0,0,0,0,0,0,0,0.0792,0.0801,0.088,0.0887,0.0896,0.0989,0.0938,0.0997,0.1052,0.0993,0.1055,0.1057,0.1065,0.107,0.109,0.1092,0.1095,0.1117,0.1118,0.1118,0.1119,0,0,0,0,0,0,0,0.0787,0.0796,0.0874,0.0882,0.0891,0.0935,0.0947,0.095,0.1016,0.0998,0.1006,0.1021,0.1069,0.1089,0.1092,0.1095,0.1117,0.1118,0.1119,0.1119,0.1472,0.1481,0,0,0,0,0,0,0.0769,0.079,0.087,0.0878,0.0848,0.0936,0.0949,0.0957,0.1018,0.103,0.102,0.1025,0.1086,0.109,0.1094,0.1254,0.1118,0.1119,0.112,0.1464,0.1474,0.1484,0,0,0,0,0,0,0.0766,0.0774,0.0864,0.0839,0.0853,0.0936,0.0943,0.0958,0.1061,0.1036,0.1046,0.1116,0.1088,0.1093,0.1267,0.1249,0.1119,0.112,0.1453,0.1467,0.1479,0.1453,0,0,0,0,0,0,0.0762,0.0772,0.0788,0.0837,0.0854,0.0944,0.0943,0.096,0.1063,0.1074,0.112,0.1122,0.1089,0.1267,0.1268,0.1248,0.1121,0.1442,0.1459,0.1475,0.1442,0.1463,0.1481,0,0,0,0,0,0.0758,0.0774,0.0787,0.0798,0.0867,0.0946,0.0961,0.1023,0.1067,0.1121,0.1238,0.1125,0.1371,0.1277,0.1275,0.1253,0.1434,0.1454,0.1474,0.1434,0.1459,0.1481,0,0,0,0,0,0,0.0747,0.0787,0.0802,0.0833,0.0905,0.0965,0.1012,0.1074,0.1203,0.1241,0.1241,0.1255,0.137,0.1397,0.1293,0.1437,0.1381,0.1402,0.1351,0.1375,0.1394,0.14,0.1122,0,0,0,0,0,0.0745,0.0766,0.0825,0.0859,0.0892,0.0972,0.1021,0.1081,0.1187,0.1247,0.1297,0.1385,0.1438,0.1486,0.1527,0.1622,0.1604,0.163,0.1649,0.1664,0.1691,0.1728,0.1747,0.1549,0.1549,0.1549,0,0,0.0748,0.0776,0.0789,0.0858,0.0911,0.0975,0.1008,0.1112,0.1208,0.1227,0.1398,0.1433,0.149,0.1583,0.1637,0.1609,0.1712,0.1689,0.1698,0.1719,0.175,0.1767,0.1782,0.1563,0.1561,0.1558,0,0,0.0767,0.0796,0.0823,0.0882,0.098,0.1028,0.1082,0.1198,0.1297,0.1492,0.1496,0.1585,0.1727,0.1714,0.1737,0.1922,0.1799,0.1941,0.2026,0.2061,0.2072,0.2083,0.2025,0.2031,0.1961,0.1961,0.1961,0,0.0782,0.0811,0.0853,0.0905,0.0962,0.1063,0.1136,0.1242,0.1423,0.1521,0.1579,0.1779,0.1777,0.1842,0.191,0.1932,0.194,0.1883,0.2066,0.2078,0.2088,0.2028,0.2034,0.1962,0.1962,0.1962,0.1962,0,0.0815,0.0858,0.0889,0.097,0.1042,0.113,0.1257,0.1394,0.1547,0.165,0.1835,0.1894,0.2011,0.1999,0.2012,0.2074,0.2044,0.2046,0.1951,0.2103,0.2034,0.204,0.1964,0.1964,0.1963,0.1963,0,0,0.0815,0.0895,0.0914,0.0952,0.1094,0.1153,0.1333,0.1506,0.1617,0.1833,0.1979,0.2089,0.2129,0.2169,0.2142,0.2178,0.2197,0.2173,0.2174,0.2018,0.2234,0.2146,0.2142,0.2236,0.2239,0.2242,0.2126,0,0.0847,0.0923,0.0971,0.1073,0.1127,0.1262,0.1394,0.1572,0.1748,0.191,0.2041,0.2149,0.2189,0.221,0.2273,0.2211,0.2232,0.2226,0.2202,0.22,0.2021,0.2154,0.2086,0.1977,0.2131,0.2132,0.2133,0,0.0882,0.092,0.1018,0.1114,0.1152,0.1234,0.1442,0.1572,0.1809,0.1958,0.2136,0.2224,0.2313,0.2324,0.2369,0.238,0.234,0.2298,0.2293,0.2232,0.2128,0.1881,0.1982,0.2143,0.2142,0.2141,0.2141,0,0.0864,0.096,0.1035,0.1076,0.1204,0.1301,0.1389,0.1606,0.1716,0.1961,0.2052,0.2237,0.2279,0.2358,0.2352,0.2374,0.236,0.2351,0.2225,0.2212,0.2164,0.2144,0.239,0.239,0.239,0.2391,0.2391,0,0.0876,0.0927,0.103,0.1065,0.1151,0.1263,0.1386,0.1531,0.1704,0.1818,0.204,0.2132,0.2306,0.2346,0.2363,0.2319,0.2379,0.226,0.221,0.2155,0.2137,0.2313,0.2306,0.2386,0.2387,0.2388,0.2389,0,0.0828,0.0915,0.097,0.1092,0.1144,0.1197,0.1335,0.1413,0.1589,0.1734,0.1813,0.2038,0.2137,0.223,0.2269,0.2259,0.2241,0.2189,0.2073,0.2015,0.2055,0.205,0.2061,0.2057,0.2054,0.2052,0.205,0,0.0809,0.0844,0.0951,0.0984,0.1038,0.1132,0.1209,0.1374,0.1455,0.1677,0.1732,0.1878,0.2015,0.203,0.2089,0.2094,0.2133,0.1936,0.1984,0.2089,0.2038,0.2037,0.2036,0.1873,0.187,0.1867,0.1865,0,0.0739,0.0791,0.082,0.0896,0.0968,0.1027,0.1143,0.1185,0.1398,0.1492,0.1646,0.1755,0.1874,0.1919,0.1914,0.19,0.1959,0.1877,0.2048,0.1975,0.1906,0.1857,0.1864,0.1841,0.1843,0.1845,0.1846,0.1847,0.0674,0.0683,0.0757,0.0811,0.0873,0.0954,0.1004,0.1118,0.122,0.1396,0.1488,0.1629,0.171,0.1742,0.1706,0.1711,0.1812,0.174,0.1751,0.1765,0.1773,0.1705,0.1597,0.1598,0.1598,0.1599,0.16,0,0.0669,0.0711,0.0685,0.0765,0.0781,0.0885,0.0991,0.1027,0.1137,0.1301,0.1407,0.1359,0.143,0.1548,0.156,0.1522,0.1541,0.1443,0.1496,0.152,0.1542,0.1542,0.1302,0.1301,0.1299,0.1298,0,0,0.0652,0.0676,0.065,0.0683,0.0755,0.0834,0.0904,0.095,0.106,0.1115,0.1231,0.1359,0.1518,0.1386,0.1366,0.1369,0.1429,0.1317,0.1565,0.1656,0.1676,0.1729,0.1758,0,0,0,0,0]},{"header":{"parameterUnit":"m.s-1","parameterCategory":2,"la1":30.2991,"la2":30.254,"lo1":-89.0895,"lo2":-89.0444,"dy":0.0017,"dx":0.0017,"nx":28,"ny":28,"refTime":"2023-08-03T03:00:00:Z","depth":"2","parameterNumber":3,"parameterNumberName":"V-component_of_CURRENTS"},"data":[0,0,0,0,0,0,0,0,0,0,0,0,0,0,0,0,0,0,0,0,0,0,0,0,0,0,0,0,0,0,0,0,0,0,0,0,0,0,0,0,0,0,0,0,0,0,0,0,0,0,0,0,0,0,0,0,0,0,-0.0743,-0.0743,0,-0.074,-0.074,-0.074,-0.0724,-0.0723,-0.0722,-0.0722,-0.0716,-0.0717,-0.0717,0,0,0,0,0,0,0,0,0,0,0,0,0,-0.0691,-0.0693,-0.0743,-0.0743,-0.0742,-0.074,-0.074,-0.074,-0.0724,-0.0723,-0.0722,-0.0722,-0.0716,-0.0717,-0.0717,0,0,0,0,0,0,0,0,0,0,0,0,0,-0.0706,-0.0693,-0.0743,-0.0732,-0.0731,-0.074,-0.074,-0.0741,-0.0724,-0.0723,-0.0722,-0.0721,-0.0716,-0.0717,-0.0717,-0.0739,0,0,-0.0719,-0.0719,0,0,0,0,0,0,0,0,-0.0705,-0.0708,-0.0734,-0.0733,-0.0732,-0.073,-0.072,-0.0739,-0.0724,-0.0729,-0.0722,-0.0721,-0.072,-0.072,-0.0724,-0.0738,-0.0738,-0.0719,-0.0719,-0.072,-0.072,0,0,0,0,0,0,0,-0.0704,-0.0708,-0.0744,-0.0734,-0.0732,-0.0713,-0.0715,-0.0723,-0.0731,-0.0728,-0.0727,-0.0723,-0.0719,-0.0724,-0.0724,-0.0738,-0.0719,-0.072,-0.072,-0.072,-0.0646,-0.0643,0,0,0,0,0,0,-0.0704,-0.0707,-0.0744,-0.0744,-0.0714,-0.0715,-0.0717,-0.0733,-0.0731,-0.0729,-0.0724,-0.0723,-0.0723,-0.0723,-0.0724,-0.0691,-0.072,-0.072,-0.0721,-0.0648,-0.0645,-0.0643,0,0,0,0,0,0,-0.0703,-0.0708,-0.0744,-0.0722,-0.0725,-0.0717,-0.0735,-0.0733,-0.0696,-0.0727,-0.0726,-0.0684,-0.0723,-0.0723,-0.0668,-0.0693,-0.0721,-0.0721,-0.0651,-0.0647,-0.0644,-0.0663,0,0,0,0,0,0,-0.0702,-0.0708,-0.0699,-0.0723,-0.0726,-0.0718,-0.0735,-0.0734,-0.0697,-0.0694,-0.0693,-0.0694,-0.0722,-0.0666,-0.0668,-0.0694,-0.0722,-0.0654,-0.0649,-0.0645,-0.0665,-0.066,-0.0656,0,0,0,0,0,-0.0701,-0.0689,-0.07,-0.0702,-0.0722,-0.0717,-0.0716,-0.0708,-0.0696,-0.0672,-0.0648,-0.0692,-0.0641,-0.0664,-0.0667,-0.0694,-0.0656,-0.065,-0.0645,-0.0667,-0.0661,-0.0656,0,0,0,0,0,0,-0.065,-0.0687,-0.0699,-0.0696,-0.0694,-0.0712,-0.0689,-0.0681,-0.0647,-0.0626,-0.0653,-0.0651,-0.063,-0.0625,-0.065,-0.0649,-0.066,-0.0655,-0.0675,-0.067,-0.0666,-0.0614,-0.0722,0,0,0,0,0,-0.0641,-0.0648,-0.0671,-0.0664,-0.0664,-0.0668,-0.0656,-0.0646,-0.063,-0.0612,-0.0616,-0.0607,-0.0619,-0.0607,-0.0615,-0.0596,-0.0625,-0.0611,-0.0607,-0.0604,-0.0556,-0.063,-0.063,-0.0625,-0.0625,-0.0625,0,0,-0.0617,-0.0638,-0.0639,-0.0653,-0.0656,-0.0647,-0.0658,-0.0623,-0.0591,-0.0618,-0.0566,-0.0595,-0.0606,-0.0603,-0.0593,-0.0596,-0.0622,-0.0597,-0.0595,-0.0548,-0.0624,-0.0626,-0.0627,-0.0622,-0.0622,-0.0623,0,0,-0.0582,-0.0596,-0.0593,-0.0595,-0.0587,-0.0591,-0.057,-0.0566,-0.0535,-0.0472,-0.0521,-0.0534,-0.0502,-0.0561,-0.0574,-0.0532,-0.0605,-0.0541,-0.0479,-0.0553,-0.0555,-0.0557,-0.0625,-0.0633,-0.0533,-0.0533,-0.0533,0,-0.0542,-0.0561,-0.0581,-0.0581,-0.0572,-0.0562,-0.0541,-0.0513,-0.0481,-0.0454,-0.043,-0.0446,-0.0484,-0.0526,-0.0516,-0.0534,-0.0568,-0.0519,-0.0554,-0.0556,-0.0559,-0.0627,-0.0636,-0.0533,-0.0533,-0.0533,-0.0533,0,-0.0525,-0.0525,-0.0517,-0.0528,-0.0513,-0.0486,-0.0467,-0.0423,-0.0371,-0.0356,-0.0332,-0.0375,-0.0376,-0.0431,-0.0449,-0.0506,-0.0527,-0.0561,-0.0586,-0.0562,-0.0633,-0.0643,-0.0533,-0.0533,-0.0533,-0.0533,0,0,-0.0483,-0.0499,-0.0497,-0.0488,-0.0478,-0.046,-0.0401,-0.0356,-0.0308,-0.0267,-0.0224,-0.0273,-0.0289,-0.0302,-0.0386,-0.0451,-0.0539,-0.0489,-0.0494,-0.0585,-0.0691,-0.0647,-0.0653,-0.0589,-0.059,-0.059,-0.0749,0,-0.0458,-0.0444,-0.046,-0.0421,-0.041,-0.0388,-0.0343,-0.0293,-0.0234,-0.0189,-0.0212,-0.0203,-0.0243,-0.0262,-0.0327,-0.0491,-0.0554,-0.049,-0.067,-0.0674,-0.0664,-0.0659,-0.0609,-0.0738,-0.0758,-0.076,-0.0761,0,-0.0442,-0.0439,-0.0401,-0.0373,-0.0364,-0.0329,-0.0254,-0.0208,-0.0152,-0.0103,-0.0082,-0.0091,-0.0165,-0.0198,-0.0401,-0.0355,-0.0485,-0.0609,-0.062,-0.0561,-0.0644,-0.0754,-0.0755,-0.0776,-0.0775,-0.0774,-0.0773,0,-0.0407,-0.0391,-0.0352,-0.0346,-0.0316,-0.0268,-0.0232,-0.0174,-0.0118,-0.0052,-0.001,-0.0061,-0.009,-0.0234,-0.0405,-0.0414,-0.0633,-0.07,-0.0783,-0.0784,-0.0758,-0.0753,-0.0825,-0.0825,-0.0824,-0.0824,-0.0823,0,-0.0383,-0.0351,-0.0325,-0.0306,-0.0242,-0.0229,-0.0143,-0.01,-0.0044,0.0027,0.0034,0.0062,-0.0095,-0.0206,-0.0381,-0.0577,-0.0609,-0.0747,-0.081,-0.0762,-0.0755,-0.0785,-0.0778,-0.083,-0.0828,-0.0827,-0.0826,0,-0.0351,-0.0337,-0.0293,-0.0249,-0.0222,-0.0171,-0.0087,-0.0025,0.0018,0.0107,0.0139,0.0129,0.0001,-0.017,-0.0434,-0.0549,-0.0759,-0.0826,-0.0738,-0.0784,-0.0876,-0.0868,-0.0948,-0.0948,-0.0947,-0.0947,-0.0947,0,-0.0331,-0.0305,-0.0245,-0.0204,-0.0173,-0.0098,-0.0034,0.002,0.0094,0.0157,0.0206,0.0136,0.0103,-0.0234,-0.0434,-0.0704,-0.0763,-0.0828,-0.0827,-0.0828,-0.0884,-0.0876,-0.0868,-0.0837,-0.0836,-0.0835,-0.0834,0,-0.029,-0.026,-0.0223,-0.0145,-0.0071,0.0,0.01,0.0159,0.0242,0.0292,0.0351,0.0313,0.0075,-0.0143,-0.0459,-0.0632,-0.0769,-0.0815,-0.0869,-0.0779,-0.0727,-0.0779,-0.0776,-0.0825,-0.0826,-0.0827,-0.0827,-0.0828,-0.0246,-0.0204,-0.0137,-0.007,0.0014,0.0121,0.0212,0.0306,0.0404,0.048,0.042,0.0386,0.0121,-0.0242,-0.0482,-0.0671,-0.0722,-0.0826,-0.0829,-0.0833,-0.0757,-0.0703,-0.0784,-0.0785,-0.0785,-0.0786,-0.0786,0,-0.0163,-0.0103,-0.0058,0.0042,0.0139,0.0179,0.0325,0.041,0.0552,0.0568,0.0564,0.0325,0.0072,-0.0166,-0.0428,-0.0662,-0.0681,-0.0724,-0.0715,-0.0724,-0.0731,-0.0649,-0.065,-0.0649,-0.0649,-0.0649,0,0,-0.012,-0.0034,-0.0031,0.0137,0.0231,0.0405,0.0504,0.0601,0.0676,0.0642,0.0631,0.046,0.0191,0.0003,-0.0318,-0.0442,-0.0514,-0.0464,-0.0558,-0.0518,-0.0521,-0.0785,-0.0667,0,0,0,0,0]}],[{"header":{"parameterUnit":"m.s-1","parameterCategory":2,"la1":30.2991,"la2":30.254,"lo1":-89.0895,"lo2":-89.0444,"dy":0.0017,"dx":0.0017,"nx":28,"ny":28,"refTime":"2023-08-03T03:00:00:Z","depth":"4","parameterNumber":2,"parameterNumberName":"U-component_of_CURRENTS"},"data":[0,0,0,0,0,0,0,0,0,0,0,0,0,0,0,0,0,0,0,0,0,0,0,0,0,0,0,0,0,0,0,0,0,0,0,0,0,0,0,0,0,0,0,0,0,0,0,0,0,0,0,0,0,0,0,0,0,0,0.0415,0.0415,0,0.0426,0.0426,0.0425,0.0438,0.0438,0.0438,0.0439,0.0459,0.046,0.046,0,0,0,0,0,0,0,0,0,0,0,0,0,0.0371,0.0372,0.0415,0.0415,0.0416,0.0426,0.0426,0.0425,0.0438,0.0438,0.0439,0.0439,0.0459,0.046,0.046,0,0,0,0,0,0,0,0,0,0,0,0,0,0.0385,0.0372,0.0415,0.0425,0.0426,0.0426,0.0426,0.0425,0.0437,0.0438,0.0439,0.0439,0.0459,0.046,0.046,0.0449,0,0,0.0461,0.0461,0,0,0,0,0,0,0,0,0.0384,0.0386,0.0423,0.0424,0.0425,0.0433,0.0418,0.0435,0.0437,0.043,0.0439,0.044,0.0453,0.0453,0.0451,0.045,0.0451,0.0461,0.0461,0.0461,0.0461,0,0,0,0,0,0,0,0.0383,0.0386,0.0417,0.0423,0.0425,0.0417,0.042,0.0421,0.0436,0.0431,0.0433,0.0437,0.0453,0.045,0.0451,0.0452,0.0461,0.0461,0.0461,0.0461,0.0478,0.0478,0,0,0,0,0,0,0.0388,0.0385,0.0416,0.0417,0.0408,0.0418,0.0421,0.0428,0.0436,0.0439,0.0437,0.0438,0.045,0.0451,0.0452,0.0479,0.0461,0.0461,0.0461,0.0478,0.0478,0.0478,0,0,0,0,0,0,0.0387,0.0391,0.0416,0.0403,0.0406,0.0418,0.0426,0.0428,0.0442,0.0441,0.0443,0.0451,0.045,0.0452,0.0461,0.0478,0.0461,0.0462,0.0477,0.0478,0.0478,0.0507,0,0,0,0,0,0,0.0386,0.039,0.0401,0.0403,0.0407,0.0423,0.0426,0.0428,0.0444,0.0446,0.0454,0.0455,0.0451,0.0461,0.0461,0.0478,0.0462,0.0477,0.0478,0.0478,0.0506,0.0509,0.0511,0,0,0,0,0,0.0384,0.0393,0.0402,0.0406,0.0421,0.0424,0.0425,0.0433,0.0444,0.0448,0.0454,0.0456,0.0465,0.0461,0.0462,0.0479,0.0477,0.0477,0.0478,0.0505,0.0508,0.0511,0,0,0,0,0,0,0.0377,0.0395,0.0405,0.0419,0.0426,0.0427,0.0436,0.0442,0.045,0.0459,0.0457,0.0458,0.047,0.0469,0.0465,0.0485,0.0472,0.0473,0.0492,0.0495,0.0498,0.051,0.0462,0,0,0,0,0,0.0382,0.0395,0.0407,0.0419,0.0427,0.0435,0.0441,0.0449,0.0454,0.0459,0.0466,0.0471,0.047,0.048,0.0475,0.049,0.0487,0.0501,0.0504,0.0506,0.0516,0.0507,0.0509,0.048,0.048,0.048,0,0,0.0381,0.0395,0.0401,0.0419,0.0428,0.0437,0.044,0.0456,0.0463,0.046,0.0478,0.0478,0.0472,0.0483,0.049,0.0489,0.0516,0.0507,0.0509,0.0517,0.0508,0.051,0.0513,0.0481,0.0481,0.0481,0,0,0.0383,0.0402,0.0414,0.0423,0.0445,0.0448,0.0457,0.0471,0.048,0.0494,0.049,0.0503,0.0508,0.0508,0.0507,0.0522,0.0522,0.0525,0.0558,0.0549,0.0552,0.0554,0.0569,0.0572,0.0535,0.0536,0.0536,0,0.0384,0.0401,0.0416,0.043,0.0439,0.0456,0.0467,0.0474,0.0489,0.0497,0.0506,0.0519,0.0519,0.0527,0.0537,0.053,0.0532,0.0548,0.0553,0.0555,0.0556,0.0571,0.0574,0.0537,0.0537,0.0537,0.0537,0,0.0392,0.041,0.0418,0.0442,0.0451,0.0464,0.0478,0.0494,0.0513,0.0521,0.0541,0.0545,0.0558,0.056,0.0558,0.0573,0.0574,0.055,0.0547,0.0561,0.0576,0.0579,0.0539,0.0539,0.0538,0.0538,0,0,0.0378,0.0417,0.042,0.0437,0.0461,0.0469,0.0485,0.0501,0.0522,0.0542,0.0564,0.0575,0.0594,0.0595,0.0597,0.0601,0.0622,0.0593,0.0592,0.0611,0.0623,0.0649,0.0654,0.0597,0.0598,0.0598,0.0635,0,0.0381,0.0409,0.0425,0.0447,0.0463,0.0482,0.0493,0.0511,0.0537,0.0562,0.0576,0.06,0.0601,0.0625,0.0626,0.062,0.0629,0.0616,0.0604,0.0604,0.0626,0.0657,0.0599,0.0636,0.0637,0.0637,0.0638,0,0.0378,0.04,0.0422,0.0458,0.0467,0.0481,0.0514,0.0531,0.0561,0.0586,0.0618,0.0633,0.0661,0.0652,0.0662,0.0655,0.0649,0.0642,0.0642,0.0658,0.0634,0.0614,0.0642,0.0642,0.0642,0.0641,0.0641,0,0.0354,0.0395,0.0414,0.0425,0.0464,0.0481,0.0506,0.0539,0.0564,0.0614,0.0644,0.0668,0.0698,0.0686,0.0704,0.068,0.071,0.0665,0.0681,0.0683,0.0635,0.0632,0.0663,0.0663,0.0663,0.0663,0.0663,0,0.0341,0.0359,0.041,0.0418,0.0445,0.048,0.0518,0.0546,0.0595,0.0627,0.0665,0.0699,0.0708,0.0732,0.0719,0.0734,0.0725,0.0704,0.0696,0.0649,0.0647,0.0638,0.0635,0.0664,0.0664,0.0663,0.0663,0,0.0306,0.0338,0.0362,0.0413,0.0433,0.0453,0.0525,0.0553,0.0609,0.0655,0.0677,0.0731,0.0774,0.0791,0.0791,0.0769,0.0767,0.0769,0.0759,0.0747,0.0738,0.0735,0.0776,0.0778,0.0779,0.078,0.078,0,0.0293,0.0299,0.035,0.0367,0.0393,0.0443,0.0473,0.0545,0.0583,0.067,0.0684,0.0759,0.0792,0.0822,0.0832,0.0838,0.082,0.0821,0.0745,0.0762,0.075,0.0746,0.0743,0.0782,0.0782,0.0782,0.0783,0,0.0257,0.0272,0.0292,0.0333,0.0368,0.0413,0.0473,0.0501,0.0584,0.0635,0.0697,0.0741,0.0797,0.0821,0.0861,0.0844,0.0818,0.083,0.0826,0.0755,0.0769,0.0755,0.0751,0.0786,0.0786,0.0785,0.0785,0,0.0224,0.0229,0.0259,0.0296,0.0339,0.038,0.0418,0.0483,0.0534,0.0635,0.0655,0.0732,0.0789,0.0827,0.0847,0.0867,0.0831,0.0786,0.0783,0.078,0.0767,0.0785,0.0815,0,0,0,0,0,0.019,0.02,0.0226,0.0271,0.0318,0.035,0.0415,0.0457,0.054,0.0573,0.0621,0.0676,0.0743,0.078,0.0798,0.0838,0.0825,0.0855,0.0768,0.0806,0.0802,0.0789,0,0,0,0,0,0,0.0167,0.0184,0.021,0.0253,0.0283,0.0337,0.0378,0.0431,0.0463,0.0542,0.058,0.0646,0.0712,0.0726,0.0786,0.0799,0.0736,0.0907,0.0906,0.0809,0.0805,0.0802,0.0786,0,0,0,0,0]},{"header":{"parameterUnit":"m.s-1","parameterCategory":2,"la1":30.2991,"la2":30.254,"lo1":-89.0895,"lo2":-89.0444,"dy":0.0017,"dx":0.0017,"nx":28,"ny":28,"refTime":"2023-08-03T03:00:00:Z","depth":"4","parameterNumber":3,"parameterNumberName":"V-component_of_CURRENTS"},"data":[0,0,0,0,0,0,0,0,0,0,0,0,0,0,0,0,0,0,0,0,0,0,0,0,0,0,0,0,0,0,0,0,0,0,0,0,0,0,0,0,0,0,0,0,0,0,0,0,0,0,0,0,0,0,0,0,0,0,-0.0392,-0.0392,0,-0.0437,-0.0437,-0.0437,-0.0465,-0.0466,-0.0466,-0.0466,-0.0529,-0.0531,-0.0532,0,0,0,0,0,0,0,0,0,0,0,0,0,-0.0355,-0.0355,-0.0392,-0.0392,-0.0393,-0.0436,-0.0437,-0.0438,-0.0465,-0.0466,-0.0466,-0.0466,-0.0529,-0.0531,-0.0532,0,0,0,0,0,0,0,0,0,0,0,0,0,-0.0382,-0.0355,-0.0392,-0.0413,-0.0415,-0.0436,-0.0437,-0.0438,-0.0465,-0.0466,-0.0466,-0.0466,-0.0528,-0.053,-0.0533,-0.054,0,0,-0.0539,-0.054,0,0,0,0,0,0,0,0,-0.038,-0.0383,-0.0409,-0.0411,-0.0414,-0.0446,-0.0447,-0.0473,-0.0465,-0.0445,-0.0466,-0.0466,-0.0503,-0.0508,-0.0514,-0.0543,-0.0545,-0.054,-0.0541,-0.0542,-0.0542,0,0,0,0,0,0,0,-0.0378,-0.0381,-0.0409,-0.041,-0.0413,-0.0428,-0.0432,-0.0452,-0.0472,-0.0447,-0.045,-0.0456,-0.0505,-0.0512,-0.0516,-0.0546,-0.0539,-0.0541,-0.0543,-0.0544,-0.0665,-0.0667,0,0,0,0,0,0,-0.0372,-0.0379,-0.0407,-0.041,-0.0398,-0.0429,-0.0433,-0.0435,-0.0471,-0.0477,-0.0455,-0.0457,-0.0508,-0.0513,-0.0518,-0.0575,-0.0542,-0.0544,-0.0545,-0.0663,-0.0665,-0.0667,0,0,0,0,0,0,-0.0371,-0.0374,-0.0406,-0.0397,-0.0402,-0.0429,-0.0431,-0.0436,-0.0457,-0.0477,-0.0484,-0.0473,-0.0508,-0.0515,-0.0562,-0.0576,-0.0545,-0.0547,-0.0661,-0.0664,-0.0666,-0.0659,0,0,0,0,0,0,-0.037,-0.0373,-0.0387,-0.0396,-0.0402,-0.0422,-0.0431,-0.0436,-0.0459,-0.0462,-0.0494,-0.05,-0.0509,-0.0559,-0.0564,-0.0579,-0.0549,-0.0658,-0.0662,-0.0665,-0.0657,-0.0661,-0.0665,0,0,0,0,0,-0.0368,-0.038,-0.0387,-0.0392,-0.0415,-0.0422,-0.0427,-0.0447,-0.046,-0.0468,-0.0505,-0.05,-0.0585,-0.0562,-0.0568,-0.0583,-0.0657,-0.0661,-0.0665,-0.0655,-0.0661,-0.0665,0,0,0,0,0,0,-0.0375,-0.0384,-0.0392,-0.0408,-0.0417,-0.0427,-0.0444,-0.0454,-0.0488,-0.0502,-0.052,-0.0528,-0.0581,-0.0589,-0.0563,-0.0634,-0.0622,-0.0627,-0.0612,-0.0617,-0.0621,-0.0633,-0.055,0,0,0,0,0,-0.0381,-0.039,-0.0399,-0.0412,-0.0419,-0.0434,-0.0447,-0.0457,-0.0481,-0.0496,-0.0524,-0.0562,-0.06,-0.0614,-0.0651,-0.0679,-0.0681,-0.0698,-0.0702,-0.0705,-0.0722,-0.0725,-0.0729,-0.0681,-0.0681,-0.0681,0,0,-0.0386,-0.0395,-0.04,-0.0415,-0.0427,-0.0434,-0.0443,-0.0461,-0.0475,-0.0499,-0.0544,-0.0583,-0.0617,-0.0659,-0.0681,-0.0665,-0.0721,-0.071,-0.0712,-0.0728,-0.073,-0.0734,-0.0738,-0.0684,-0.0684,-0.0683,0,0,-0.039,-0.0409,-0.0414,-0.0422,-0.0441,-0.0449,-0.0455,-0.0477,-0.0498,-0.0541,-0.0571,-0.0619,-0.067,-0.0695,-0.0713,-0.0763,-0.0751,-0.0779,-0.0793,-0.0794,-0.0797,-0.08,-0.0801,-0.0804,-0.0767,-0.0767,-0.0767,0,-0.0399,-0.0404,-0.0418,-0.0424,-0.0432,-0.0454,-0.0458,-0.0481,-0.052,-0.0539,-0.0559,-0.066,-0.0686,-0.0732,-0.0762,-0.0769,-0.0772,-0.0761,-0.0795,-0.0798,-0.0801,-0.0802,-0.0805,-0.0767,-0.0767,-0.0767,-0.0767,0,-0.0399,-0.0409,-0.0414,-0.0427,-0.0439,-0.0447,-0.0471,-0.05,-0.0535,-0.0556,-0.0627,-0.0681,-0.0733,-0.0753,-0.0778,-0.082,-0.0817,-0.0804,-0.0771,-0.0805,-0.0804,-0.0808,-0.0768,-0.0768,-0.0767,-0.0767,0,0,-0.0397,-0.0409,-0.0414,-0.0411,-0.044,-0.0441,-0.0478,-0.0503,-0.0521,-0.0588,-0.0617,-0.0712,-0.0747,-0.0776,-0.081,-0.0827,-0.0852,-0.0833,-0.0833,-0.0815,-0.086,-0.0797,-0.0795,-0.0839,-0.084,-0.0841,-0.0847,0,-0.0391,-0.0391,-0.0407,-0.041,-0.0406,-0.0439,-0.0459,-0.0491,-0.0534,-0.0571,-0.064,-0.0689,-0.0749,-0.0778,-0.0813,-0.0846,-0.0864,-0.0852,-0.085,-0.085,-0.0773,-0.0797,-0.0843,-0.085,-0.0851,-0.0851,-0.0852,0,-0.0385,-0.0381,-0.038,-0.0382,-0.0385,-0.0396,-0.0428,-0.045,-0.0507,-0.0545,-0.0618,-0.0667,-0.0739,-0.0769,-0.0848,-0.0839,-0.0866,-0.0886,-0.0885,-0.0835,-0.0793,-0.0815,-0.0858,-0.0857,-0.0857,-0.0856,-0.0856,0,-0.0356,-0.0363,-0.0357,-0.036,-0.0371,-0.0383,-0.0396,-0.0443,-0.0455,-0.0528,-0.0544,-0.0643,-0.0676,-0.0746,-0.0816,-0.0831,-0.0875,-0.0879,-0.0849,-0.0844,-0.0899,-0.0896,-0.0925,-0.0925,-0.0925,-0.0925,-0.0925,0,-0.0337,-0.0332,-0.0342,-0.0334,-0.0325,-0.0348,-0.0355,-0.0388,-0.0425,-0.0432,-0.0526,-0.0553,-0.0673,-0.0716,-0.0793,-0.0828,-0.085,-0.0865,-0.0844,-0.0897,-0.0894,-0.09,-0.0897,-0.0925,-0.0925,-0.0925,-0.0925,0,-0.0306,-0.0317,-0.03,-0.0306,-0.0308,-0.0301,-0.0312,-0.0316,-0.0358,-0.0371,-0.039,-0.0474,-0.0539,-0.0634,-0.0722,-0.0765,-0.0817,-0.0818,-0.0864,-0.0844,-0.0796,-0.0793,-0.0796,-0.0794,-0.0792,-0.0791,-0.079,0,-0.029,-0.028,-0.0271,-0.0261,-0.0265,-0.026,-0.0258,-0.0288,-0.0292,-0.0322,-0.0321,-0.0377,-0.0444,-0.0512,-0.0628,-0.0736,-0.0752,-0.0772,-0.0816,-0.0805,-0.0785,-0.0785,-0.0784,-0.0787,-0.0786,-0.0786,-0.0785,0,-0.0254,-0.0256,-0.0241,-0.0219,-0.0213,-0.0199,-0.0198,-0.0186,-0.0217,-0.0242,-0.0252,-0.031,-0.0364,-0.0474,-0.0541,-0.0631,-0.0762,-0.0754,-0.0759,-0.0801,-0.0794,-0.0775,-0.0777,-0.0779,-0.078,-0.0781,-0.0781,0,-0.0231,-0.0214,-0.0202,-0.0182,-0.017,-0.0155,-0.015,-0.0149,-0.0149,-0.0179,-0.0177,-0.026,-0.0319,-0.0416,-0.0489,-0.0558,-0.0593,-0.0622,-0.0635,-0.0643,-0.0602,-0.0571,-0.0475,0,0,0,0,0,-0.0214,-0.0197,-0.0169,-0.0151,-0.0138,-0.0138,-0.0124,-0.0125,-0.0137,-0.0127,-0.015,-0.0204,-0.0304,-0.036,-0.0416,-0.0477,-0.0617,-0.0545,-0.0659,-0.0745,-0.0752,-0.0725,0,0,0,0,0,0,-0.0204,-0.0183,-0.0163,-0.0138,-0.0125,-0.0115,-0.0106,-0.0108,-0.0105,-0.0121,-0.0174,-0.0207,-0.0312,-0.0272,-0.0415,-0.0439,-0.0514,-0.0602,-0.0603,-0.0741,-0.0747,-0.0753,-0.0728,0,0,0,0,0]}]]